This is the latest recevied weather packets stored in our database for station/object WX5HOT. If no packets are shown the sender has not sent any weather packets the latest 10 day(s).
| Time | Temp. | Humidity | Pressure | Rain* | Wind** | Luminosity | Snow |
|---|---|---|---|---|---|---|---|
| 1777583422 | 14.44° C | 70% | 1065.1 hPa | 0 mm | - | 322 W/m² | - |
| 1777583121 | 14.44° C | 70% | 1065.4 hPa | 0 mm | - | 321 W/m² | - |
| 1777582817 | 14.44° C | 70% | 1065.1 hPa | 0 mm | - | 297 W/m² | - |
| 1777582514 | 14.44° C | 73% | 1065.1 hPa | 0 mm | - | 243 W/m² | - |
| 1777582209 | 14.44° C | 71% | 1065.4 hPa | 0 mm | - | 251 W/m² | - |
| 1777581907 | 14.44° C | 70% | 1065.3 hPa | 0 mm | - | 340 W/m² | - |
| 1777581602 | 14.44° C | 69% | 1065.5 hPa | 0 mm | - | 273 W/m² | - |
| 1777581296 | 14.44° C | 69% | 1065.6 hPa | 0 mm | - | 290 W/m² | - |
| 1777580992 | 14.44° C | 70% | 1065.7 hPa | 0 mm | - | 295 W/m² | - |
| 1777580691 | 14.44° C | 69% | 1065.7 hPa | 0 mm | - | 317 W/m² | - |
| 1777580388 | 14.44° C | 72% | 1066 hPa | 0 mm | - | 334 W/m² | - |
| 1777580084 | 14.44° C | 67% | 1066.1 hPa | 0 mm | - | 343 W/m² | - |
| 1777579781 | 14.44° C | 69% | 1066.3 hPa | 0 mm | - | 338 W/m² | - |
| 1777579478 | 14.44° C | 69% | 1066.2 hPa | 0 mm | - | 307 W/m² | - |
| 1777579173 | 14.44° C | 69% | 1066.4 hPa | 0 mm | - | 320 W/m² | - |
| 1777578869 | 14.44° C | 71% | 1066.5 hPa | 0 mm | - | 314 W/m² | - |
| 1777578565 | 14.44° C | 72% | 1066.4 hPa | 0 mm | - | 346 W/m² | - |
| 1777578260 | 14.44° C | 71% | 1066.4 hPa | 0 mm | - | 320 W/m² | - |
| 1777577955 | 14.44° C | 71% | 1066.6 hPa | 0 mm | - | 294 W/m² | - |
| 1777577651 | 14.44° C | 72% | 1066.9 hPa | 0 mm | - | 299 W/m² | - |
| 1777577349 | 14.44° C | 69% | 1066.9 hPa | 0 mm | - | 321 W/m² | - |
| 1777577044 | 13.89° C | 69% | 1067 hPa | 0 mm | - | 319 W/m² | - |
| 1777576741 | 13.89° C | 69% | 1066.8 hPa | 0 mm | - | 289 W/m² | - |
| 1777576440 | 13.89° C | 69% | 1066.9 hPa | 0 mm | - | 253 W/m² | - |
| 1777576137 | 13.89° C | 69% | 1066.9 hPa | 0 mm | - | 263 W/m² | - |
* Rain latest hour (hover to see other rain measurements)
** Current wind speed in m/s (hover to see current wind gust speed)